Location: Tel Aviv
(32.0670°N, 34.7670°E)
Time: 01:45:36
(UTC+03:00)

AO-7 - Pass Details

Date: 23 September 2024
Orbit: 1440 x 1458 km, 102.0° (Epoch: 10 October)

Event Time Altitude Azimuth Distance (km) Brightness Sun altitude
Rises 19:28:44 0° 221° (SW) 4,540 ? -12.0°
Reaches altitude 10° 19:35:07 10° 257° (WSW) 3,573 ? -13.3°
Maximum altitude 19:36:35 11° 268° (W) 3,534 ? -13.7°
Drops below altitude 10° 19:38:03 10° 278° (W) 3,577 ? -14.0°
Sets 19:44:33 0° 315° (NW) 4,565 ? -15.3°
